Location: Chacao
(10.4960°N, 66.8535°W)
Time: 21:42:48
(UTC+00:00)

STARLINK-31754 - Pass Details

Date: 18 April 2024
Orbit: 443 x 445 km, 43.0° (Epoch: 24 May)

Event Time Altitude Azimuth Distance (km) Brightness Sun altitude
Rises 22:46:40 0° 324° (NW) 2,415 7.7 -2.8°
Reaches altitude 10° 22:48:53 10° 333° (NNW) 1,547 6.5 -3.3°
Maximum altitude 22:52:11 39° 43° (NE) 674 3.9 -4.1°
Drops below altitude 10° 22:55:30 10° 113° (ESE) 1,548 5.3 -4.9°
Enters shadow 22:56:26 - 118° (ESE) 1,912 5.8 -5.1°
